Regional Weather Roundup
Issued by NWS Kansas City/Pleasant Hill, MO

Home | Current Version | Previous Version | Graphics & Text | Print | Product List | Glossary Off
Versions: 1 2 3 4 5 6 7 8 9 10 11 12 13 14 15 16 17 18 19 20 21 22 23 24 25 26 27 28 29 30 31 32 33 34 35 36 37 38 39 40 41 42 43 44 45 46 47 48 49 50

781
ASUS43 KEAX 082210
RWREAX

WEATHER ROUNDUP FOR EASTERN KANSAS AND NORTHWEST MISSOURI
NATIONAL WEATHER SERVICE KANSAS CITY/PLEASANT HILL MO
400 PM CST THU DEC 08 2016

KSZ040-057-103>105-MOZ028-029-037-043-082300-
...KANSAS CITY METROPOLITAN AREA...

CITY           SKY/WX    TMP DP  RH WIND       PRES   REMARKS
K.C. INTL      PTCLDY    25   9  50 NW10      30.60R WCI  15
K.C. DOWNTOWN  CLEAR     26  10  50 NW14      30.62R WCI  14
LEES SUMMIT    CLEAR     25  11  55 NW10      30.60R WCI  15
OLATHE - IXD   PTCLDY    25  11  55 W13       30.61S WCI  14
OLATHE - OJC   CLEAR     25  10  53 NW13      30.60R WCI  14
LAWRENCE       CLEAR     26  12  55 W13       30.64R WCI  15

$$

MOZ001>008-011>017-020>025-030>033-038>040-044>046-053-054-082300-
...NORTHERN AND CENTRAL MISSOURI...

CITY           SKY/WX    TMP DP  RH WIND       PRES   REMARKS
ST. JOSEPH     CLEAR     25  10  53 NW16      30.62S WCI  12
MOSBY          CLEAR     27  10  50 NW9       30.62R WCI  17
WARRENSBURG    CLEAR     27  12  54 W10       30.60S WCI  17
WHITEMAN AFB   PTCLDY    26  11  54 W13       30.58R WCI  15
CLINTON        CLEAR     27  12  54 NW12      30.61R WCI  16
SEDALIA        PTCLDY    26  13  57 NW12      30.58S WCI  16
WARSAW         NOT AVBL
CHILLICOTHE      N/A     26  10  50 NW9G20    30.58S WCI  17
KIRKSVILLE     CLEAR     24  10  55 W13G21    30.53R WCI  12

$$

MOZ041-047>049-056>058-063>065-088>090-097-082300-
...EASTERN AND SOUTHERN MISSOURI...

CITY           SKY/WX    TMP DP  RH WIND       PRES   REMARKS
ST. LOUIS INTL PTCLDY    29  11  47 W10G21    30.51R WCI  20
SPIRIT OF STL  CLEAR     28  13  53 NW17G25   30.52R WCI  16
COLUMBIA       CLEAR     26  11  52 W16       30.54R WCI  14
JEFFERSON CITY CLEAR     27  11  51 W9G17     30.57R WCI  18
ROLLA          CLEAR     27  12  53 NW12G20   30.51R WCI  17
OSAGE BEACH    PTCLDY    30  14  51 VRB6      30.57R WCI  24
SPRINGFIELD    CLEAR     28  12  51 NW12      30.56R WCI  18
BRANSON        PTCLDY    28   9  43 NW12G20   30.56R WCI  18
JOPLIN         CLEAR     28  14  55 NW12      30.62S WCI  18
WEST PLAINS    CLEAR     32  11  41 W10       30.52R WCI  24

$$

IAZ060-094-KSZ022-034>040-054-083-096-NEZ052-066-093-082300-
...KANSAS...SOUTHEAST NEBRASKA AND IOWA...

CITY           SKY/WX    TMP DP  RH WIND       PRES   REMARKS
TOPEKA         CLEAR     27  11  51 NW14      30.64R WCI  16
MANHATTAN      CLEAR     28  10  46 VRB5      30.65S WCI  23
EMPORIA        CLEAR     26  11  52 NW12      30.62S WCI  16
CHANUTE        CLEAR     28  13  53 NW12      30.63S WCI  18
WICHITA        MOSUNNY   29   6  38 N12       30.64R WCI  19
OMAHA          PTCLDY    25   7  46 NW17      30.61R WCI  12
LINCOLN        CLEAR     26   8  46 NW14      30.64R WCI  14
FALLS CITY     CLEAR     25   9  50 NW12      30.62R WCI  14
LAMONI         CLEAR     24  10  55 NW17      30.54R WCI  11
DES MOINES     PTCLDY    24  10  55 NW18      30.53R WCI  10

$$





USA.gov is the U.S. government's official web portal to all federal, state and local government web resources and services.